Location: Buckland
(65.9785°N, 161.1281°W)
Time: 07:21:40
(UTC+00:00)

Transit 2A Rocket - Pass Details

Date: 01 December 2020
Orbit: 592 x 910 km, 66.7° (Epoch: 21 January)

Event Time Altitude Azimuth Distance (km) Brightness Sun altitude
Exits shadow 15:36:20 81° 267° (W) 793 4.8 -25.8°
Maximum altitude 15:36:37 88° 347° (NNW) 781 4.9 -25.8°
Drops below altitude 10° 15:41:43 10° 78° (ENE) 2,218 8.4 -25.2°
Sets 15:43:58 0° 78° (ENE) 3,090 9.5 -25.0°
